Tracking 33850 objects as of 19-Apr-2026
HD Live streaming from Space Station
objects crossing your sky now

STARLINK-31858

Track STARLINK-31858 now!
10-day predictions
STARLINK-31858 is classified as:


NORAD ID: 59658
Int'l Code: 2024-084E
Perigee: 489.4 km
Apogee: 491.0 km
Inclination: 43.0 °
Period: 94.3 minutes
Semi major axis: 6861 km
RCS: Unknown
Launch date: May 6, 2024
Source: United States (US)
Launch site: AIR FORCE EASTERN TEST RANGE (AFETR)
Your satellite tracking list
Your tracking list is empty




NASA's NSSDC Master Catalog

Two Line Element Set (TLE):
1 59658U 24084E   26108.49267497  .00002136  00000-0  87149-4 0  9991
2 59658  43.0018 176.7428 0001099 267.8721  92.2005 15.27574739110468
Source of the keplerian elements: AFSPC